Weather History for Patuxent River, MD

Change the Weather History Date:

Monday, December 10, 2012

  Actual Average Record
Temperature  
Mean Temperature 58 °F -  
Max Temperature 69 °F 47 °F 70 °F (2008)
Min Temperature 48 °F 31 °F 21 °F (1977)
Degree Days  
Heating Degree Days 6    
Growing Degree Days 8 (Base 50)    
Moisture  
Dew Point 52 °F    
Average Humidity 89    
Maximum Humidity 100    
Minimum Humidity 70    
Precipitation  
Precipitation 0.00 in - - ()
Sea Level Pressure  
Sea Level Pressure 29.82 in    
Wind  
Wind Speed 2 mph (SSE)    
Max Wind Speed 12 mph    
Max Gust Speed 17 mph    
Visibility 4 miles    
Events Fog , Rain    
Averages and records for this station are not official NWS values.
T = Trace of Precipitation, MM = Missing Value Source: NWS Daily Summary

Daily Weather History Graph

Daily Weather History Graph

Search for Another Location

Airport:

Trip Planner

Search our weather history database for the weather conditions in past years. The results will help you decide how hot, cold, wet, or windy it might be!

Date:

Astronomy

Dec. 10, 2012 Rise Set
Actual Time 7:11 AM EST 4:45 PM EST
Civil Twilight 6:42 AM EST 5:14 PM EST
Nautical Twilight 6:09 AM EST 5:47 PM EST
Astronomical Twilight 5:37 AM EST 6:20 PM EST
Moon 3:54 AM EST (12/10) 2:31 PM EST (12/10)
Length of Visible Light 10h 32m
Length of Day
9h 33m
Waning Crescent, 10% of the Moon is Illuminated
Dec 10
Waning Crescent
Dec 13
New
Dec 20
First Quarter
Dec 28
Full
Jan 4
Last Quarter

Hourly Weather History & Observations

Time (EST) Temp. Dew Point Humidity Pressure Visibility Wind Dir Wind Speed Gust Speed Precip Events Conditions
12:32 AM 51.8 °F 50.0 °F 94% 29.96 in 1.0 mi Calm Calm - N/A   Mist
12:49 AM 50.0 °F 48.2 °F 94% 29.96 in 0.8 mi Calm Calm - N/A   Overcast
12:52 AM 50.0 °F 48.9 °F 96% 29.96 in 0.8 mi Calm Calm - N/A   Overcast
1:06 AM 50.0 °F 48.2 °F 94% 29.95 in 1.5 mi Calm Calm - N/A   Overcast
1:14 AM 50.0 °F 48.2 °F 94% 29.95 in 2.0 mi Calm Calm - N/A   Overcast
1:16 AM 50.0 °F 48.2 °F 94% 29.95 in 1.5 mi Calm Calm - N/A   Overcast
1:24 AM 51.8 °F 50.0 °F 94% 29.95 in 1.0 mi Calm Calm - N/A   Overcast
1:33 AM 51.8 °F 48.2 °F 88% 29.94 in 1.8 mi Calm Calm - N/A   Overcast
1:45 AM 50.0 °F 48.2 °F 94% 29.94 in 3.0 mi Calm Calm - N/A   Overcast
1:52 AM 50.0 °F 48.9 °F 96% 29.94 in 4.0 mi Calm Calm - N/A   Overcast
2:10 AM 50.0 °F 48.2 °F 94% 29.93 in 3.0 mi Calm Calm - N/A   Mostly Cloudy
2:19 AM 50.0 °F 48.2 °F 94% 29.93 in 1.8 mi Calm Calm - N/A   Mostly Cloudy
2:25 AM 48.2 °F 48.2 °F 100% 29.93 in 0.8 mi Calm Calm - N/A   Overcast
2:34 AM 48.2 °F 48.2 °F 100% 29.92 in 0.5 mi Calm Calm - N/A Fog Fog
2:52 AM 48.9 °F 48.0 °F 97% 29.92 in 0.8 mi Calm Calm - N/A   Overcast
3:03 AM 48.2 °F 46.4 °F 93% 29.91 in 0.8 mi Calm Calm - N/A   Mostly Cloudy
3:12 AM 48.2 °F 46.4 °F 93% 29.90 in 0.8 mi Calm Calm - N/A   Mostly Cloudy
3:14 AM 48.2 °F 46.4 °F 93% 29.90 in 1.0 mi Calm Calm - N/A   Scattered Clouds
3:36 AM 48.2 °F 46.4 °F 93% 29.89 in 1.0 mi East 3.5 mph - N/A   Mostly Cloudy
3:43 AM 48.2 °F 46.4 °F 93% 29.89 in 0.8 mi East 3.5 mph - N/A   Mist
3:52 AM 48.9 °F 46.9 °F 93% 29.88 in 1.5 mi Calm Calm - N/A   Mostly Cloudy
4:00 AM 48.2 °F 46.4 °F 93% 29.88 in 2.5 mi Calm Calm - N/A   Scattered Clouds
4:24 AM 48.2 °F 46.4 °F 93% 29.87 in 1.2 mi Calm Calm - N/A   Partly Cloudy
4:36 AM 48.2 °F 46.4 °F 93% 29.87 in 2.0 mi Calm Calm - N/A   Scattered Clouds
4:48 AM 48.2 °F 46.4 °F 93% 29.86 in 3.0 mi East 3.5 mph - N/A   Mostly Cloudy
4:52 AM 48.9 °F 46.9 °F 93% 29.86 in 3.0 mi East 4.6 mph - N/A   Mostly Cloudy
5:12 AM 48.2 °F 48.2 °F 100% 29.86 in 1.0 mi East 3.5 mph - N/A   Mist
5:18 AM 48.2 °F 46.4 °F 93% 29.86 in 0.5 mi East 3.5 mph - N/A Fog Fog
5:52 AM 50.0 °F 48.0 °F 93% 29.85 in 1.0 mi Calm Calm - N/A   Overcast
6:19 AM 50.0 °F 48.2 °F 94% 29.83 in 3.0 mi Calm Calm - N/A   Overcast
6:52 AM 51.1 °F 48.9 °F 92% 29.83 in 5.0 mi Calm Calm - N/A   Overcast
7:20 AM 51.8 °F 48.2 °F 88% 29.83 in 0.8 mi Calm Calm - N/A   Overcast
7:52 AM 52.0 °F 51.1 °F 97% 29.82 in 0.8 mi South 3.5 mph - N/A   Overcast
8:07 AM 60.8 °F 57.2 °F 88% 29.81 in 0.8 mi SSE 5.8 mph - 0.00 in Rain Light Rain
8:13 AM 60.8 °F 57.2 °F 88% 29.80 in 1.0 mi South 8.1 mph - 0.00 in   Overcast
8:39 AM 60.8 °F 59.0 °F 94% 29.81 in 3.0 mi SSE 10.4 mph - 0.00 in   Overcast
8:46 AM 60.8 °F 59.0 °F 94% 29.80 in 5.0 mi South 9.2 mph - 0.00 in   Overcast
8:52 AM 62.1 °F 60.1 °F 93% 29.80 in 5.0 mi South 10.4 mph 17.3 mph 0.00 in   Overcast
9:52 AM 64.0 °F 61.0 °F 90% 29.80 in 10.0 mi SSW 6.9 mph - N/A   Overcast
10:52 AM 63.0 °F 61.0 °F 93% 29.77 in 6.0 mi SSW 4.6 mph - N/A   Mostly Cloudy
11:32 AM 64.4 °F 60.8 °F 88% 29.73 in 10.0 mi South 5.8 mph - N/A   Mostly Cloudy
11:52 AM 64.9 °F 62.1 °F 90% 29.71 in 10.0 mi SSE 10.4 mph - N/A   Mostly Cloudy
12:06 PM 64.4 °F 60.8 °F 88% 29.70 in 10.0 mi ESE 8.1 mph - N/A   Mostly Cloudy
12:52 PM 68.0 °F 62.1 °F 81% 29.68 in 10.0 mi SSW 11.5 mph 17.3 mph N/A   Mostly Cloudy
12:55 PM 68.0 °F 62.6 °F 83% 29.67 in 10.0 mi SSW 10.4 mph 17.3 mph N/A   Mostly Cloudy
1:52 PM 66.9 °F 61.0 °F 81% 29.65 in 10.0 mi South 6.9 mph - N/A   Mostly Cloudy
2:52 PM 69.1 °F 60.1 °F 73% 29.63 in 10.0 mi South 6.9 mph 17.3 mph N/A   Mostly Cloudy
3:52 PM 68.0 °F 60.1 °F 76% 29.62 in 10.0 mi South 5.8 mph - N/A   Mostly Cloudy
4:52 PM 66.0 °F 59.0 °F 78% 29.62 in 10.0 mi SW 3.5 mph - N/A   Overcast
5:52 PM 66.0 °F 59.0 °F 78% 29.64 in 10.0 mi SSW 5.8 mph - N/A   Mostly Cloudy
6:52 PM 64.0 °F 59.0 °F 84% 29.63 in 10.0 mi South 4.6 mph - N/A   Mostly Cloudy
7:52 PM 66.0 °F 55.9 °F 70% 29.62 in 10.0 mi SSW 11.5 mph - N/A   Scattered Clouds
8:52 PM 64.0 °F 55.9 °F 75% 29.61 in 10.0 mi South 6.9 mph - N/A   Scattered Clouds
9:52 PM 64.9 °F 57.0 °F 75% 29.62 in 10.0 mi South 8.1 mph - N/A   Mostly Cloudy
10:52 PM 64.9 °F 55.9 °F 73% 29.63 in 10.0 mi SSW 10.4 mph - N/A   Clear
11:52 PM 64.0 °F 55.9 °F 75% 29.64 in 10.0 mi South 8.1 mph - N/A   Clear